NOAA NWS Hourly Roundups by Site

Regional Weather Roundup for Detroit, MI

To Select Another Site Choose from List

Select Site:  

000
ASUS43 KDTX 020401
RWRMI
MICHIGAN HOURLY REGIONAL WEATHER ROUNDUP
NATIONAL WEATHER SERVICE DETROIT/PONTIAC MI
1100 PM EST TUE DEC 01 2020

NOTE: "FAIR" INDICATES FEW OR NO CLOUDS BELOW 12,000 FEET WITH NO
SIGNIFICANT WEATHER AND/OR OBSTRUCTION TO VISIBILITY.

MIZ047>049-052>055-059>063-066>070-074>076-081>083-020500-
SOUTHEAST LOWER MICHIGAN

CITY           SKY/WX    TMP DP  RH WIND       PRES   REMARKS
ADRIAN         CLEAR     32  23  69 NW8G18    30.00R WCI  25
ANN ARBOR        N/A    N/A N/A N/A MISG        N/A
BAD AXE        CLEAR     30  21  68 NW21G26   29.86R WCI  17
CARO           CLEAR     30  21  67 NW10      29.91R WCI  21
DETROIT CITY   CLEAR     32  22  66 NW13G24   29.92R WCI  22
DETROIT        PTCLDY    32  21  64 NW12      29.94R WCI  23
FLINT          CLEAR     31  22  69 NW12      29.94R WCI  22
HILLSDALE      CLEAR     30  25  80 NW10G20   29.98S WCI  21

CITY           SKY/WX    TMP DP  RH WIND       PRES   REMARKS
LAMBERTVILLE   CLEAR     32  25  74 W9        29.98R WCI  24
LANSING        CLEAR     31  23  72 NW13      29.99R WCI  21
LAPEER         FAIR      29  20  68 NW9G17    29.91R WCI  21
MASON          CLEAR     30  24  77 NW12      29.98R WCI  21
PONTIAC        PTCLDY    29  21  72 NW15      29.90R WCI  18
PORT HOPE        N/A     36  25  64 NW23G40   29.83R WCI  24
PORT HURON     MOCLDY    30  19  64 W12G21    29.87R WCI  21
TRI CITIES     CLEAR     31  20  63 NW15G25   29.96R WCI  20
MIDLAND        NOT AVBL
TROY           CLEAR     32  24  73 W14G21    29.93R WCI  22
SAGINAW HB     CLEAR     32  21  64 NW15      29.93S WCI  22
$$
MIZ043>046-050>051-056>058-064>065-071>073-077>080-020500-
SOUTHWEST LOWER MICHIGAN

CITY           SKY/WX    TMP DP  RH WIND       PRES   REMARKS
BATTLE CREEK   CLEAR     33  25  72 NW13G26   30.03S WCI  24
BENTON HARBOR  MOCLDY    37  27  67 NW12G22   30.12R WCI  29
HOLLAND        CLEAR     37  27  67 NW10G20   30.08S WCI  30
GRAND RAPIDS   CLEAR     33  25  72 NW13      30.05R WCI  24
KALAMAZOO      CLEAR     32  25  75 NW10      30.06R WCI  24
LUDINGTON      PTCLDY    34  27  76 N9        30.09S WCI  27
MARSHALL       CLEAR     32  24  72 NW10G16   30.01R WCI  24
SOUTH HAVEN    PTCLDY    37  28  71 NW15G21   30.10R WCI  27
$$
MIZ016>042-020500-
NORTHERN LOWER MICHIGAN

CITY           SKY/WX    TMP DP  RH WIND       PRES   REMARKS
ALPENA         CLEAR     32  16  51 NW14      29.93R WCI  22
BEAVER ISLAND  CLEAR     33  27  79 NW9G16    30.07S WCI  25
BELLAIRE       CLEAR     33  26  75 NW6       30.04S WCI  27
CADILLAC       CLOUDY    31  26  83 NW9       30.00R WCI  22
GAYLORD        CLEAR     29  20  69 NW7       29.97R WCI  22
HARBOR SPRINGS CLEAR     30  22  70 NW9       30.02S WCI  22
HOUGHTON LAKE  CLEAR     29  21  72 NW15G25   29.96S WCI  18
OSCODA         CLEAR     30  20  66 NW21      29.88R WCI  17
PELLSTON       CLEAR     31  22  69 NW14G24   30.03R WCI  21
ROGERS CITY    CLEAR     33  18  53 NW23G32   29.95S WCI  21
TRAVERSE CITY  PTCLDY    36  28  73 N12G23    30.05R WCI  28
$$
MIZ007>008-015-020500-
EASTERN UPPER MICHIGAN

CITY           SKY/WX    TMP DP  RH WIND       PRES   REMARKS
NEWBERRY       CLEAR     29  23  76 N8        30.05R WCI  21
MUNISING         N/A     34  26  72 N18       30.11S WCI  23
$$
MIZ004>006-011>014-085-020500-
CENTRAL UPPER MICHIGAN

CITY           SKY/WX    TMP DP  RH WIND       PRES   REMARKS
MANISTIQUE     CLEAR     28  25  86 NW9       30.08S WCI  20
$$
MIZ001>003-009>011-084-020500-
WESTERN UPPER MICHIGAN

CITY           SKY/WX    TMP DP  RH WIND       PRES   REMARKS
IRON MOUNTAIN  CLEAR     22  16  78 NW7       30.13R WCI  13
HOUGHTON       CLEAR     22  18  85 CALM      30.15R
COPPER HARBOR    N/A     28  24  85 N7        30.16S WCI  21
$$

ABBREVIATIONS USED IN REMARKS
   TC - TEMPERATURE IN CELSIUS
  WCI - WIND CHILL INDEX
   HX - HEAT INDEX
  VSB - VISIBILITY




 

View Past Reports for Detroit, MI.

Products Courtesy of NOAA-NWS
NWS Information Parsing Script by Ken True at Saratoga Weather - Script by SE Lincoln Weather.